Location: Zagreb
(45.8000°N, 16.0000°E)
Time: 18:20:02
(UTC+02:00)

A-11 Canister half - Pass Details

Date: 12 August 2022
Orbit: 1524 x 1684 km, 47.3° (Epoch: 05 October)

Event Time Altitude Azimuth Distance (km) Brightness Sun altitude
Rises 06:12:00 0° 228° (SW) 4,897 11.0 2.4°
Reaches altitude 10° 06:15:10 10° 225° (SW) 3,924 10.6 2.9°
Maximum altitude 06:25:03 62° 148° (SSE) 1,863 9.7 4.6°
Drops below altitude 10° 06:34:58 10° 71° (ENE) 3,936 14.3 6.2°
Sets 06:38:09 0° 69° (ENE) 4,914 14.1 6.8°
